Pineville, MO

1:46 PM CDT on October 30, 2014 (GMT -0500)
NW Arkansas Airport | Change Station
CLOSE
Current Station
Airport
Location: NW Arkansas Airport,
Elevation: 1286 ft
Nearby Weather Stations
Active Advisory: Freeze Warning

Elev 1286 ft 36.28 °N, 94.31 °W | Updated 53 minutes ago

Clear
Clear
67 °F
Feels Like 67 °F
N
16
Wind Variable Wind from WSW
Gusts 25 mph

Today
High -- | Low -- °F
--% Chance of Precip.
Yesterday
High -- | Low -- °F
Precip. -- in
7:38 AM 6:22 PM
Waxing Crescent, 46% visible
Pressure 30.06 in
Visibility 4.0 miles
Clouds Clear
Dew Point 42 °F
Humidity 40%
Rainfall 0.00 in
Snow Depth Not available.
UV 5 out of 12
Pollen 1.90 out of 12
Air Quality Not available.
Flu Activity Not available.
METAR KXNA 301753Z 25014G22KT 4SM -RA CLR 19/06 A3007 RMK AO2 RAB1657 SLP177 P0000 60000 T01940056 10200 20044 58016

More Conditions Fewer Conditions

Pressure 30.06 in
Visibility 4.0 miles
Clouds Clear
Dew Point 42 °F
Humidity 40%
Rainfall 0.00 in
Snow Depth Not available.
UV 5 out of 12
Pollen 1.90 out of 12
Air Quality Not available.
Flu Activity Not available.
METAR KXNA 301753Z 25014G22KT 4SM -RA CLR 19/06 A3007 RMK AO2 RAB1657 SLP177 P0000 60000 T01940056 10200 20044 58016

More Conditions Fewer Conditions

10-Day Weather Forecast

Almanac

Astronomy

Oct. 30, 2014 Rise Set
Actual Time
Civil Twilight
Nautical Twilight
Astronomical Twilight
Moon
Length of Visible Light
Length of Day
Tomorrow will be .
, % of the Moon is Illuminated

Today's Extremes

State Highs State Lows

Community

WunderPhotos

Upload Photos

1,766,425 photos uploaded!

WunderBlogs® & News

Nearby

Air Quality

  Air Quality AQ Index Pollutant
Not available.

Snow Depth

Station Depth Elevation

Earthquake Activity

City Distance Mag. Time & Date
Minimum magnitude displayed is 2.5.

Coastal Water Temperatures

Place Temperature

Nearby Weather Stations